Wind_Speed
9 9 9 9 11 13 14 16 17 16 18 22 21 21 20 25 25 26 26 26 28 28 29 31 32 33 33 33 33 32 32 32 31 29 28 28 27 25 25 24 22 21 22 23
8 8 9 11 14 15 15 14 14 16 18 21 21 21 20 24 25 26 26 26 29 28 29 31 32 34 35 35 35 33 34 34 34 32 30 30 28 27 26 25 24 23 22 24
9 8 12 13 14 13 13 13 14 16 18 20 21 21 20 22 23 25 25 27 28 28 30 32 33 34 35 35 35 35 35 35 35 33 32 30 30 28 26 26 25 25 26 25
9 10 13 13 12 12 12 12 13 15 17 17 19 22 20 21 24 25 25 26 26 27 29 31 33 34 33 34 35 35 35 35 35 34 34 32 31 30 28 27 26 26 25 24
9 10 12 12 12 12 12 13 15 15 16 16 16 20 18 18 22 24 22 24 25 26 27 29 31 32 33 33 34 35 35 35 35 34 34 33 32 31 30 29 28 27 26 26
7 9 11 11 11 12 12 12 13 14 16 17 15 18 19 20 20 21 19 22 23 24 26 27 29 31 32 33 34 35 35 35 35 35 34 34 33 31 30 29 28 27 27 27
8 11 12 12 11 11 12 13 14 16 16 15 15 18 19 20 20 19 19 21 23 23 24 26 27 29 30 32 32 33 34 35 35 34 34 34 33 32 31 30 29 28 28 27
9 12 11 11 12 11 12 12 14 16 16 16 17 16 18 19 19 19 20 20 20 20 21 23 24 26 28 29 30 31 31 32 33 33 33 33 32 32 32 32 30 30 29 28
10 11 10 11 12 12 10 11 13 16 18 19 17 16 19 19 19 19 19 19 19 19 20 21 22 23 25 27 28 29 30 30 31 32 32 31 31 32 31 31 30 29 28 28
13 13 11 9 11 11 11 10 12 13 17 18 17 19 19 19 19 18 18 18 17 17 18 20 20 22 24 25 26 27 28 29 30 30 31 31 31 31 31 31 31 30 30 29
13 13 11 10 11 11 11 13 13 14 15 17 19 20 19 17 17 15 16 17 17 18 18 18 20 21 22 24 25 26 27 28 29 30 30 31 31 31 30 31 30 29 29 28
14 14 13 13 13 11 11 13 14 15 15 16 18 21 20 18 18 17 16 16 16 16 16 18 19 21 23 24 25 26 27 28 28 28 29 30 30 30 30 30 30 29 29 29
13 13 13 12 12 11 12 11 12 13 15 17 18 20 19 17 18 17 15 16 17 16 16 17 18 20 21 23 24 25 26 27 26 27 27 28 29 29 30 30 30 29 29 28
12 12 12 11 10 8 8 8 11 12 15 18 19 19 19 18 18 16 16 16 17 18 17 17 18 19 19 20 21 22 24 25 25 26 26 27 27 27 27 26 27 27 27 29
12 11 10 10 9 9 9 10 12 14 16 18 19 18 18 18 18 17 17 17 17 17 17 17 16 17 17 18 18 19 20 22 22 23 23 24 25 24 24 25 26 26 26 26
11 10 9 8 8 8 9 10 13 15 16 17 18 18 19 19 18 18 18 18 17 17 17 16 16 17 17 18 19 19 19 19 20 21 22 22 22 23 23 23 23 23 24 24
9 9 9 8 7 7 9 11 13 15 16 17 18 18 19 19 18 19 18 18 17 16 16 16 17 18 17 17 17 17 18 19 19 19 19 20 20 21 21 21 21 21 21 22
9 9 9 8 7 9 10 10 13 16 16 16 17 18 18 18 18 18 18 17 16 16 16 17 17 17 17 17 17 16 16 17 17 17 18 18 18 18 18 18 18 19 19 20
10 9 9 8 8 10 10 9 13 16 17 16 17 17 17 17 17 17 17 16 15 16 17 17 16 16 15 15 15 15 16 16 16 16 17 17 17 17 16 16 16 17 17 18
9 9 9 7 9 11 10 10 13 16 17 16 16 16 16 16 16 15 15 15 15 15 15 15 15 14 14 14 14 15 15 14 14 14 15 15 15 15 15 15 15 16 16 17
8 8 8 8 10 10 9 11 14 15 16 16 16 16 16 16 16 15 14 14 14 14 14 13 13 12 12 13 13 13 13 13 13 13 13 12 13 13 14 14 14 15 15 16
7 8 9 9 9 9 11 13 14 15 15 15 16 15 15 15 15 14 14 13 13 13 13 12 11 11 11 11 12 11 11 11 11 12 12 12 12 13 13 13 13 13 14 14
9 10 8 8 9 10 11 12 13 14 14 14 15 15 14 14 13 13 13 12 12 12 11 10 9 9 9 10 10 9 9 9 9 10 10 10 11 11 11 11 11 12 12 12
9 8 8 7 8 8 9 10 11 12 13 13 14 14 14 13 13 12 12 11 11 10 9 8 6 6 6 6 6 6 6 7 7 7 8 8 8 9 9 9 9 9 9 10
7 5 6 6 6 7 8 9 10 11 12 12 13 13 13 13 12 11 11 10 9 8 6 5 4 5 4 3 3 4 4 4 4 5 6 6 7 7 7 7 7 7 8 8
7 4 5 5 5 6 7 8 9 10 11 12 12 12 13 12 11 11 10 10 9 7 6 5 5 5 5 5 4 4 3 3 3 4 4 5 5 5 5 5 6 6 6 7
Wind_Direction
255 258 258 262 263 258 254 247 243 244 252 262 264 264 261 263 262 262 260 257 254 254 253 251 248 247 247 248 249 250 252 256 260 263 265 269 273 274 277 277 274 268 266 261
256 264 258 255 262 264 262 260 257 257 259 264 267 267 266 262 264 264 261 256 254 253 252 251 249 247 246 247 249 249 251 255 258 261 265 268 274 276 275 275 275 270 269 269
245 253 265 264 269 271 267 269 263 255 258 266 267 269 266 267 261 262 262 259 257 255 253 252 250 249 247 247 248 249 249 252 257 260 264 268 271 275 276 273 273 275 273 274
242 244 262 270 271 272 271 273 270 263 265 270 272 275 270 267 263 262 261 260 260 256 254 253 251 249 248 248 248 249 249 252 256 260 265 267 270 272 274 274 274 275 275 275
238 255 268 276 275 272 268 268 269 270 268 268 272 272 273 269 268 266 264 261 259 258 257 255 252 249 247 246 246 248 250 252 255 258 261 264 266 269 272 275 276 274 275 274
235 253 265 275 276 275 274 274 273 276 275 275 277 271 271 270 269 267 270 269 265 263 261 257 252 249 247 246 246 246 249 252 254 256 259 262 265 267 268 271 272 272 274 272
255 258 265 273 278 283 282 284 282 279 282 285 276 267 271 272 272 272 278 279 270 265 263 258 253 251 249 248 248 248 250 252 253 256 258 261 263 265 266 270 271 270 273 271
263 272 269 271 280 283 281 281 283 288 291 290 287 270 274 282 280 278 282 285 278 270 264 259 254 252 248 249 250 250 250 252 254 256 258 260 262 264 266 269 270 270 269 267
239 259 258 259 271 282 280 274 279 285 293 293 296 291 285 285 283 280 282 284 284 275 268 261 255 252 250 250 250 250 250 252 253 255 258 260 262 265 266 267 268 268 267 264
234 246 249 262 275 286 290 277 272 285 296 300 301 298 292 289 285 283 283 282 283 280 272 265 259 256 254 253 253 253 252 253 254 255 258 261 263 263 264 266 268 267 266 266
241 244 241 247 258 270 277 287 286 286 291 296 301 299 300 296 294 292 284 283 283 278 273 267 262 260 257 255 255 255 255 256 257 258 259 261 263 264 264 265 266 267 267 268
243 245 242 238 250 253 259 268 277 282 287 291 296 298 301 298 298 298 290 286 287 281 276 268 265 265 263 261 261 259 259 259 261 260 260 263 265 265 265 265 266 265 266 266
246 247 248 251 255 252 251 263 276 281 290 298 296 299 304 303 299 296 292 290 288 286 282 275 271 272 268 265 263 262 260 261 262 263 264 265 263 264 266 265 265 265 265 267
245 252 254 269 285 270 276 282 287 290 292 297 297 298 302 304 304 303 299 295 290 287 286 282 277 273 271 270 265 262 261 261 263 264 265 264 264 265 265 264 264 266 267 266
242 248 253 264 279 295 298 295 294 293 295 296 299 301 304 303 302 304 302 300 294 291 288 284 280 276 273 274 272 268 266 265 266 268 268 267 266 266 267 267 268 268 268 267
238 246 251 257 270 283 288 289 290 293 296 299 301 302 301 303 303 303 302 300 297 293 290 284 281 279 277 278 277 273 271 270 270 273 272 270 270 270 271 271 272 272 271 271
245 248 252 254 261 271 283 283 289 295 298 298 301 304 303 303 302 301 301 301 298 294 290 284 280 275 276 278 278 275 274 273 272 274 276 276 274 272 272 272 273 273 274 275
259 261 262 263 262 260 272 286 296 301 300 303 305 305 305 306 306 301 299 299 297 295 290 284 279 279 279 276 275 276 276 277 276 276 276 275 276 274 272 272 273 275 275 276
256 264 267 266 275 281 281 299 307 310 312 310 309 310 308 308 308 306 303 302 300 298 293 287 285 286 283 278 275 276 278 280 280 280 278 277 278 279 281 282 285 284 283 283
259 262 267 273 286 293 297 311 312 311 313 316 316 315 313 312 311 311 308 306 304 301 297 292 289 285 280 277 277 277 278 279 282 284 285 283 282 282 285 288 288 287 286 285
255 259 270 280 285 292 305 312 312 314 317 320 322 320 317 317 316 314 313 310 307 302 299 294 292 286 281 279 279 280 281 283 285 288 290 289 286 285 285 286 287 285 285 286
245 254 257 267 281 297 305 308 312 316 319 323 325 325 323 322 320 318 316 314 310 309 304 299 293 290 288 285 281 281 283 284 286 288 287 287 286 286 285 286 286 287 289 290
240 248 267 281 286 295 303 311 317 321 324 327 330 330 329 328 327 326 323 320 315 316 312 308 302 295 291 288 282 277 281 283 286 288 288 291 291 289 288 289 289 291 292 293
232 245 264 280 286 295 307 316 323 327 330 333 336 337 336 336 335 332 330 331 329 326 321 320 321 313 304 298 288 283 286 290 292 296 299 303 301 299 298 296 295 296 299 302
216 240 267 280 289 299 311 321 329 334 337 338 340 343 345 345 345 345 345 344 345 348 351 353 1 2 360 347 331 321 316 309 306 311 318 318 319 316 311 309 309 309 310 315
226 240 264 281 293 307 319 328 335 339 344 346 347 348 349 352 355 358 3 6 9 14 18 21 23 25 27 26 22 15 13 6 355 351 351 349 347 344 339 334 332 332 330 329
Height
5795 5797 5798 5799 5800 5801 5801 5802 5803 5804 5804 5801 5800 5799 5799 5797 5798 5798 5798 5800 5800 5801 5803 5803 5804 5806 5808 5810 5812 5814 5815 5817 5818 5819 5820 5820 5820 5821 5822 5823 5823 5823 5823 5823
5793 5794 5795 5796 5797 5796 5796 5797 5797 5798 5798 5796 5794 5794 5794 5793 5793 5792 5792 5794 5793 5795 5796 5796 5798 5800 5802 5803 5806 5808 5810 5811 5812 5814 5815 5816 5815 5816 5817 5818 5818 5819 5818 5819
5791 5793 5792 5792 5792 5792 5792 5793 5793 5793 5793 5791 5790 5789 5789 5788 5787 5786 5786 5786 5786 5788 5789 5789 5791 5792 5794 5796 5799 5801 5803 5805 5806 5807 5809 5810 5811 5811 5812 5812 5812 5813 5814 5814
5788 5790 5790 5789 5789 5789 5788 5789 5789 5788 5788 5787 5787 5785 5784 5782 5780 5780 5780 5780 5780 5781 5782 5782 5784 5786 5788 5790 5792 5794 5796 5798 5800 5802 5803 5805 5806 5807 5807 5806 5807 5808 5809 5809
5785 5786 5786 5786 5786 5785 5785 5785 5784 5783 5783 5782 5782 5780 5780 5777 5775 5773 5773 5774 5774 5775 5776 5776 5778 5780 5782 5783 5785 5787 5789 5792 5794 5796 5797 5799 5800 5802 5802 5802 5802 5803 5803 5804
5782 5783 5783 5783 5783 5782 5782 5781 5780 5780 5779 5778 5778 5776 5775 5773 5771 5769 5768 5767 5768 5769 5770 5770 5771 5773 5775 5777 5779 5781 5783 5785 5788 5790 5791 5793 5794 5796 5796 5796 5796 5797 5798 5798
5779 5779 5779 5779 5779 5779 5779 5779 5778 5776 5775 5774 5773 5771 5771 5768 5765 5765 5764 5763 5763 5764 5764 5764 5765 5767 5769 5771 5773 5775 5777 5779 5781 5783 5785 5786 5788 5789 5790 5790 5790 5791 5792 5793
5777 5776 5776 5776 5776 5777 5776 5776 5776 5774 5772 5771 5768 5766 5765 5763 5762 5760 5760 5759 5757 5757 5758 5758 5759 5761 5763 5765 5766 5768 5770 5772 5775 5777 5779 5780 5781 5782 5783 5784 5785 5785 5786 5787
5774 5774 5773 5773 5774 5775 5774 5774 5773 5771 5769 5767 5765 5762 5760 5759 5757 5755 5756 5755 5754 5753 5753 5754 5755 5756 5757 5759 5761 5762 5764 5766 5768 5770 5772 5773 5775 5776 5777 5778 5779 5779 5780 5780
5770 5771 5771 5772 5772 5772 5772 5771 5770 5769 5767 5764 5763 5760 5756 5755 5753 5751 5751 5751 5750 5750 5750 5750 5751 5751 5753 5754 5755 5757 5758 5760 5762 5764 5765 5767 5768 5769 5770 5771 5771 5772 5773 5774
5767 5768 5769 5769 5769 5770 5770 5769 5767 5766 5765 5762 5760 5759 5754 5751 5749 5748 5748 5748 5747 5746 5746 5746 5747 5747 5748 5749 5750 5751 5753 5754 5756 5757 5759 5760 5761 5762 5763 5764 5764 5765 5766 5767
5764 5765 5765 5766 5765 5765 5766 5766 5765 5764 5762 5760 5758 5758 5751 5749 5747 5746 5745 5744 5743 5743 5742 5742 5743 5743 5743 5744 5745 5746 5747 5748 5750 5751 5752 5753 5754 5755 5756 5756 5757 5758 5759 5760
5761 5762 5762 5762 5763 5762 5761 5761 5761 5760 5759 5757 5754 5755 5748 5746 5745 5743 5742 5741 5740 5740 5739 5739 5739 5739 5738 5739 5739 5740 5741 5742 5743 5744 5745 5746 5747 5748 5749 5750 5750 5751 5752 5753
5758 5759 5760 5760 5758 5758 5758 5759 5758 5758 5756 5754 5751 5749 5746 5744 5742 5740 5739 5738 5737 5736 5735 5735 5734 5734 5734 5734 5734 5734 5735 5736 5737 5738 5739 5739 5740 5741 5742 5742 5743 5744 5745 5746
5755 5756 5757 5757 5757 5756 5757 5757 5756 5755 5753 5751 5748 5746 5744 5741 5739 5737 5736 5734 5733 5732 5731 5730 5730 5730 5729 5729 5729 5729 5729 5730 5731 5732 5732 5733 5733 5734 5735 5736 5736 5737 5738 5738
5752 5754 5755 5755 5755 5755 5755 5755 5753 5752 5750 5748 5745 5744 5741 5737 5735 5733 5732 5731 5729 5728 5727 5726 5725 5725 5725 5724 5724 5724 5724 5725 5726 5726 5727 5727 5728 5728 5728 5729 5730 5730 5730 5731
5750 5751 5752 5752 5752 5752 5753 5752 5751 5749 5747 5745 5742 5741 5737 5735 5733 5731 5729 5727 5726 5724 5723 5722 5721 5721 5720 5720 5720 5720 5720 5720 5720 5721 5721 5722 5722 5722 5723 5723 5723 5724 5724 5725
5748 5749 5749 5749 5750 5750 5751 5748 5747 5745 5743 5740 5738 5736 5734 5731 5729 5727 5725 5724 5722 5720 5719 5718 5717 5716 5716 5715 5715 5715 5715 5715 5716 5716 5716 5717 5717 5717 5717 5717 5718 5718 5718 5719
5747 5747 5747 5748 5747 5746 5745 5744 5744 5742 5740 5737 5735 5733 5730 5727 5725 5723 5721 5720 5718 5717 5715 5713 5712 5711 5711 5711 5711 5711 5711 5712 5712 5712 5712 5712 5713 5713 5713 5713 5713 5713 5714 5714
5746 5746 5746 5746 5745 5744 5743 5743 5741 5741 5738 5735 5732 5729 5727 5724 5723 5721 5718 5716 5715 5713 5711 5710 5708 5708 5707 5707 5707 5707 5707 5708 5708 5708 5708 5708 5708 5709 5709 5709 5709 5709 5709 5709
5744 5745 5744 5744 5743 5741 5741 5740 5741 5740 5737 5733 5729 5727 5724 5722 5720 5718 5715 5713 5712 5710 5708 5707 5705 5705 5704 5704 5704 5704 5704 5704 5704 5705 5705 5705 5705 5705 5705 5705 5705 5705 5704 5704
5742 5743 5743 5742 5742 5742 5740 5740 5739 5737 5733 5730 5728 5725 5722 5719 5717 5715 5713 5711 5709 5707 5705 5704 5703 5702 5701 5701 5701 5701 5701 5701 5701 5702 5702 5702 5702 5701 5701 5701 5701 5701 5700 5700
5741 5742 5740 5740 5742 5740 5739 5738 5736 5734 5732 5729 5726 5723 5720 5718 5715 5713 5711 5709 5706 5705 5703 5701 5700 5699 5699 5698 5698 5698 5698 5698 5699 5699 5699 5698 5698 5698 5698 5698 5698 5697 5697 5696
5739 5740 5740 5739 5739 5739 5738 5736 5735 5733 5730 5728 5725 5722 5719 5716 5714 5711 5709 5707 5704 5702 5701 5700 5698 5698 5697 5697 5696 5696 5696 5696 5696 5696 5696 5696 5695 5695 5695 5695 5695 5695 5694 5694
5736 5738 5739 5739 5739 5738 5737 5736 5734 5732 5729 5727 5724 5721 5719 5716 5713 5710 5708 5706 5704 5702 5700 5699 5698 5698 5697 5696 5696 5695 5694 5694 5694 5694 5694 5694 5693 5693 5693 5693 5692 5692 5692 5691
5735 5737 5739 5739 5738 5738 5737 5735 5733 5731 5729 5726 5724 5721 5718 5716 5713 5710 5708 5706 5704 5702 5701 5700 5699 5698 5697 5696 5696 5695 5695 5694 5694 5694 5694 5693 5693 5692 5692 5691 5691 5690 5690 5690